Savannah, GA

11:39 AM EDT on May 22, 2017 (GMT -0400)
Savannah International

Weather History for KSAV - January, 2014

Change the Weather History Date:

Friday, January 31, 2014

  Actual Average Record
Temperature  
Mean Temperature 49 °F 51 °F  
Max Temperature 61 °F 62 °F 83 °F (1957)
Min Temperature 37 °F 40 °F 16 °F (1966)
Degree Days  
Heating Degree Days 16 15  
Month to date heating degree days 573 486  
Since 1 July heating degree days 1099 1174  
Cooling Degree Days 0 0  
Month to date cooling degree days 3 3  
Year to date cooling degree days 3 3  
Moisture  
Dew Point 33 °F    
Average Humidity 71    
Maximum Humidity 92    
Minimum Humidity 49    
Precipitation  
Precipitation 0.00 in 0.13 in 1.56 in (1885)
Month to date precipitation 2.41 3.69  
Year to date precipitation 2.41 3.69  
Sea Level Pressure  
Sea Level Pressure 30.21 in    
Wind  
Wind Speed 2 mph (North)    
Max Wind Speed 10 mph    
Max Gust Speed 18 mph    
Visibility 10 miles    
Events      
T = Trace of Precipitation, MM = Missing Value Source: NWS Daily Summary

Daily Weather History Graph

Daily Weather History Graph

Search for Another Location

Airport or City:

Trip Planner

Search our weather history database for the weather conditions in past years. The results will help you decide how hot, cold, wet, or windy it might be!

Date:

Astronomy

Jan. 31, 2014 Rise Set
Actual Time 7:19 AM EST 5:57 PM EST
Civil Twilight 6:53 AM EST 6:23 PM EST
Nautical Twilight 6:24 AM EST 6:52 PM EST
Astronomical Twilight 5:55 AM EST 7:21 PM EST
Moon 7:34 AM EST (1/31) 7:12 PM EST (1/31)
Length of Visible Light 11h 29m
Length of Day
10h 38m
New Moon, 1% of the Moon is Illuminated
Jan 31
New Moon
Feb 6
First Quarter
Feb 14
Full
Feb 22
Last Quarter
Mar 1
New

Hourly Weather History & Observations

Time (EST) Temp. Windchill Dew Point Humidity Pressure Visibility Wind Dir Wind Speed Gust Speed Precip Events Conditions
12:53 AM 37.9 °F 33.5 °F 23.0 °F 55% 30.22 in 10.0 mi North 5.8 mph - N/A   Overcast
1:02 AM 37.4 °F 32.8 °F 23.0 °F 56% 30.22 in 10.0 mi NNW 5.8 mph - N/A   Overcast
1:53 AM 37.9 °F 32.1 °F 24.1 °F 57% 30.22 in 10.0 mi North 8.1 mph - N/A   Overcast
2:53 AM 37.0 °F 33.3 °F 27.0 °F 67% 30.22 in 10.0 mi North 4.6 mph - N/A   Overcast
3:53 AM 37.9 °F 34.4 °F 28.0 °F 68% 30.22 in 10.0 mi North 4.6 mph - N/A   Overcast
4:53 AM 37.9 °F - 28.0 °F 68% 30.22 in 10.0 mi Calm Calm - N/A   Overcast
5:53 AM 37.0 °F 34.5 °F 26.1 °F 65% 30.20 in 10.0 mi North 3.5 mph - N/A   Overcast
6:14 AM 37.4 °F - 26.6 °F 65% 30.20 in 10.0 mi Calm Calm - N/A   Overcast
6:53 AM 37.9 °F - 26.1 °F 62% 30.21 in 10.0 mi Calm Calm - N/A   Overcast
7:09 AM 37.4 °F 34.9 °F 26.6 °F 65% 30.21 in 10.0 mi WNW 3.5 mph - N/A   Overcast
7:53 AM 37.9 °F 33.5 °F 27.0 °F 65% 30.22 in 10.0 mi North 5.8 mph - N/A   Overcast
8:53 AM 39.9 °F - 28.0 °F 63% 30.25 in 10.0 mi Calm Calm - N/A   Overcast
9:05 AM 39.2 °F 35.9 °F 26.6 °F 61% 30.26 in 10.0 mi NNE 4.6 mph - N/A   Overcast
9:53 AM 41.0 °F 39.0 °F 30.0 °F 65% 30.27 in 10.0 mi NNE 3.5 mph - N/A   Overcast
10:53 AM 45.0 °F - 33.1 °F 63% 30.27 in 10.0 mi Calm Calm - N/A   Overcast
11:53 AM 48.0 °F - 37.0 °F 66% 30.24 in 10.0 mi Calm Calm - N/A   Scattered Clouds
12:53 PM 50.0 °F - 37.9 °F 63% 30.21 in 10.0 mi Calm Calm - N/A   Scattered Clouds
1:53 PM 55.0 °F - 39.9 °F 57% 30.18 in 10.0 mi Calm Calm - N/A   Scattered Clouds
2:53 PM 59.0 °F - 41.0 °F 51% 30.17 in 10.0 mi Calm Calm - N/A   Scattered Clouds
3:53 PM 60.1 °F - 41.0 °F 49% 30.16 in 10.0 mi ESE 4.6 mph - N/A   Partly Cloudy
4:53 PM 59.0 °F - 42.1 °F 53% 30.17 in 10.0 mi ESE 4.6 mph - N/A   Partly Cloudy
5:53 PM 57.0 °F - 42.1 °F 57% 30.17 in 10.0 mi Calm Calm - N/A   Partly Cloudy
6:53 PM 54.0 °F - 42.1 °F 64% 30.18 in 10.0 mi Calm Calm - N/A   Partly Cloudy
7:53 PM 50.0 °F - 43.0 °F 77% 30.19 in 10.0 mi East 6.9 mph - N/A   Clear
8:53 PM 48.9 °F - 43.0 °F 80% 30.19 in 10.0 mi Calm Calm - N/A   Clear
9:53 PM 46.9 °F - 42.1 °F 83% 30.19 in 10.0 mi Calm Calm - N/A   Clear
10:53 PM 45.0 °F 43.5 °F 42.1 °F 90% 30.18 in 10.0 mi North 3.5 mph - N/A   Partly Cloudy
11:53 PM 46.0 °F 44.8 °F 42.1 °F 86% 30.18 in 10.0 mi North 3.5 mph - N/A   Mostly Cloudy